Location: *
(2.5500°S, 65.9667°W)
Time: 06:57:56
(UTC+00:00)

Tiros 1 despin weight - Pass Details

Date: 21 April 2024
Orbit: 578 x 621 km, 48.2° (Epoch: 27 May)

Event Time Altitude Azimuth Distance (km) Brightness Sun altitude
Rises 14:40:26 0° 259° (W) 2,783 ? 60.7°
Reaches altitude 10° 14:44:58 10° 303° (WNW) 1,887 ? 61.7°
Maximum altitude 14:45:30 10° 310° (NW) 1,875 ? 61.8°
Drops below altitude 10° 14:46:01 10° 317° (NW) 1,888 ? 61.9°
Sets 14:50:36 0° 1° (N) 2,793 ? 62.8°
